Terminal Aerodrome Forecast
Issued by NWS

Home | Current Version | Previous Version | Text Only | Print | Product List | Glossary On
Versions: 1 2 3 4 5 6 7 8 9 10 11 12 13 14 15 16 17 18 19 20 21 22 23 24 25 26 27 28 29 30 31 32 33 34 35 36 37 38 39 40 41 42 43 44 45 46 47 48 49 50
000
FTUS45 KSLC 211611 AAA
TAFBCE
TAF AMD
KBCE 211611Z 2116/2212 15009KT P6SM BCFG SCT002 SCT025
      TEMPO 2116/2118 1/4SM FZFG VV002
     FM211800 17016G22KT P6SM SCT030 BKN150
     FM220700 19010G18KT P6SM BKN250=

USA.gov is the U.S. government's official web portal to all federal, state and local government web resources and services.